| time (UTC) | temp C | wind direction | speed KPH | gust KPH | rain 1hr cm | rain 24hr cm | rain mn cm | humidity % | barometer mb |
| 20260503180007 | 15 | 311 | 1.6 | 6.4 | 0.00 | 0.00 | 0.00 | 70 | 1013.3 |
| 20260503174503 | 15 | 238 | 0.0 | 6.4 | 0.00 | 0.00 | 0.00 | 71 | 1013.3 |
| 20260503173002 | 14 | 316 | 1.6 | 8.0 | 0.00 | 0.00 | 0.00 | 73 | 1013.1 |
| 20260503171559 | 15 | 358 | 0.0 | 4.8 | 0.00 | 0.00 | 0.00 | 68 | 1013.0 |
| 20260503100105 | 11 | 204 | 0.0 | 1.6 | 0.00 | 0.00 | 0.00 | 84 | 1011.3 |
| 20260503081547 | 11 | 230 | 0.0 | 1.6 | 0.00 | 0.00 | 0.00 | 84 | 1011.6 |
| 20260503071545 | 11 | 217 | 0.0 | 1.6 | 0.00 | 0.00 | 0.00 | 84 | 1011.8 |
| 20260503054534 | 11 | 176 | 0.0 | 0.0 | 0.00 | 0.00 | 0.00 | 86 | 1012.1 |
| 20260503053030 | 10 | 151 | 0.0 | 1.6 | 0.00 | 0.00 | 0.00 | 86 | 1012.2 |
| 20260503051536 | 10 | 204 | 0.0 | 3.2 | 0.00 | 0.00 | 0.00 | 85 | 1012.4 |
| 20260503050027 | 11 | 215 | 0.0 | 1.6 | 0.00 | 0.00 | 0.00 | 85 | 1012.3 |
| 20260503044528 | 11 | 240 | 0.0 | 6.4 | 0.00 | 0.00 | 0.00 | 84 | 1012.3 |
| 20260503043027 | 11 | 237 | 0.0 | 4.8 | 0.00 | 0.00 | 0.00 | 84 | 1012.1 |
| 20260503041526 | 11 | 167 | 0.0 | 3.2 | 0.00 | 0.00 | 0.00 | 83 | 1011.9 |
| 20260503040025 | 11 | 195 | 0.0 | 1.6 | 0.00 | 0.00 | 0.00 | 82 | 1011.5 |
| 20260503034526 | 12 | 221 | 1.6 | 6.4 | 0.00 | 0.00 | 0.00 | 82 | 1011.3 |
| 20260503033034 | 12 | 150 | 0.0 | 4.8 | 0.00 | 0.00 | 0.00 | 80 | 1011.0 |
| 20260503031524 | 12 | 300 | 0.0 | 8.0 | 0.00 | 0.00 | 0.00 | 79 | 1010.8 |
| 20260503030043 | 13 | 305 | 0.0 | 6.4 | 0.00 | 0.00 | 0.00 | 78 | 1010.7 |
| 20260503024530 | 13 | 223 | 0.0 | 8.0 | 0.00 | 0.00 | 0.00 | 77 | 1010.6 |
| 20260503023021 | 14 | 212 | 0.0 | 4.8 | 0.00 | 0.00 | 0.00 | 76 | 1010.5 |
| 20260503021526 | 15 | 150 | 0.0 | 4.8 | 0.00 | 0.00 | 0.00 | 75 | 1010.4 |
| 20260503020021 | 15 | 217 | 0.0 | 6.4 | 0.00 | 0.00 | 0.00 | 74 | 1010.4 |
| 20260503014520 | 16 | 226 | 3.2 | 9.7 | 0.00 | 0.00 | 0.00 | 72 | 1010.5 |
| 20260503013019 | 16 | 199 | 1.6 | 9.7 | 0.00 | 0.00 | 0.00 | 70 | 1010.5 |
| 20260503011518 | 17 | 278 | 1.6 | 8.0 | 0.00 | 0.00 | 0.00 | 69 | 1010.5 |
| 20260503010020 | 18 | 354 | 3.2 | 11.3 | 0.00 | 0.00 | 0.00 | 66 | 1010.5 |
| 20260503004520 | 18 | 50 | 1.6 | 9.7 | 0.00 | 0.00 | 0.00 | 66 | 1010.3 |
| 20260503003017 | 19 | 356 | 3.2 | 9.7 | 0.00 | 0.00 | 0.00 | 63 | 1010.4 |
| 20260503001517 | 20 | 347 | 1.6 | 9.7 | 0.00 | 0.00 | 0.00 | 63 | 1010.3 |
| 20260503000028 | 20 | 199 | 1.6 | 11.3 | 0.00 | 0.00 | 0.00 | 62 | 1010.3 |
| 20260502234515 | 20 | 219 | 0.0 | 12.9 | 0.00 | 0.00 | 0.00 | 62 | 1010.4 |
| 20260502233014 | 21 | 307 | 3.2 | 9.7 | 0.00 | 0.00 | 0.00 | 61 | 1010.5 |
| 20260502231512 | 21 | 315 | 1.6 | 14.5 | 0.00 | 0.00 | 0.00 | 60 | 1010.6 |
| 20260502230009 | 21 | 2 | 3.2 | 12.9 | 0.00 | 0.00 | 0.00 | 60 | 1010.9 |
| 20260502224508 | 21 | 167 | 4.8 | 14.5 | 0.00 | 0.00 | 0.00 | 59 | 1011.2 |
| 20260502223003 | 21 | 312 | 3.2 | 12.9 | 0.00 | 0.00 | 0.00 | 61 | 1011.4 |
| 20260502221501 | 21 | 197 | 3.2 | 12.9 | 0.00 | 0.00 | 0.00 | 60 | 1011.5 |
| 20260502220100 | 20 | 282 | 1.6 | 16.1 | 0.00 | 0.00 | 0.00 | 61 | 1011.7 |
| 20260502214602 | 20 | 207 | 0.0 | 11.3 | 0.00 | 0.00 | 0.00 | 61 | 1012.0 |
| 20260502213055 | 20 | 11 | 3.2 | 12.9 | 0.00 | 0.00 | 0.00 | 60 | 1012.1 |
| 20260502211554 | 20 | 290 | 1.6 | 11.3 | 0.00 | 0.00 | 0.00 | 61 | 1012.2 |
| 20260502210051 | 20 | 13 | 3.2 | 12.9 | 0.00 | 0.00 | 0.00 | 61 | 1012.3 |
| 20260502204601 | 20 | 287 | 4.8 | 19.3 | 0.00 | 0.00 | 0.00 | 62 | 1012.6 |
| 20260502203107 | 19 | 233 | 1.6 | 11.3 | 0.00 | 0.00 | 0.00 | 65 | 1013.0 |
| 20260502201547 | 19 | 255 | 1.6 | 12.9 | 0.00 | 0.00 | 0.00 | 65 | 1013.1 |
| 20260502200046 | 18 | 32 | 4.8 | 12.9 | 0.00 | 0.00 | 0.00 | 64 | 1013.3 |
| 20260502194544 | 18 | 279 | 0.0 | 9.7 | 0.00 | 0.00 | 0.00 | 65 | 1013.5 |
| 20260502193043 | 18 | 294 | 3.2 | 12.9 | 0.00 | 0.00 | 0.00 | 65 | 1013.7 |
| 20260502191541 | 18 | 221 | 0.0 | 9.7 | 0.00 | 0.00 | 0.00 | 67 | 1013.7 |
| 20260502190038 | 17 | 326 | 1.6 | 12.9 | 0.00 | 0.00 | 0.00 | 69 | 1013.9 |
| 20260502184533 | 17 | 338 | 1.6 | 11.3 | 0.00 | 0.00 | 0.00 | 71 | 1014.0 |
| 20260502183033 | 16 | 325 | 4.8 | 11.3 | 0.00 | 0.00 | 0.00 | 71 | 1014.0 |
| 20260502181539 | 17 | 315 | 3.2 | 12.9 | 0.00 | 0.00 | 0.00 | 71 | 1014.1 |